Location: Overspoor
(51.4747°N, 5.6641°E)
Time: 09:14:44
(UTC+01:00)

X-37B - Visible Passes

Search period start: 29 January 2022 00:00
Search period end: 08 February 2022 00:00
Orbit: 331 x 339 km, 45.0° (Epoch: 27 January)

Date Brightness Start Highest point End Pass type
(mag) Time Alt. Az. Time Alt. Az. Time Alt. Az.
29 Jan 2.6 19:17:50 10° SSW 19:19:15 15° S 19:19:15 15° S visible
30 Jan 3.1 18:04:45 10° SSE 18:05:02 10° SSE 18:05:18 10° SSE visible
30 Jan 2.7 19:37:38 10° SW 19:38:53 17° SSW 19:38:53 17° SSW visible
31 Jan 2.6 18:23:17 10° SSW 18:25:07 16° SSE 18:26:57 10° ESE visible
31 Jan 3.2 19:57:46 10° SW 19:58:29 14° SW 19:58:29 14° SW visible
01 Feb 2.3 18:43:05 10° SW 18:45:17 20° S 18:46:52 14° SE visible
02 Feb 2.2 19:03:13 10° SW 19:05:29 22° S 19:06:29 18° SSE visible
03 Feb 2.4 19:23:34 10° WSW 19:25:40 19° S 19:26:09 18° S visible
04 Feb 2.4 18:08:40 10° SW 18:10:56 22° S 18:13:12 10° SE visible
04 Feb 3.0 19:44:17 10° SW 19:45:49 14° SSW 19:45:51 14° SSW visible
05 Feb 2.7 18:29:01 10° WSW 18:31:08 19° S 18:33:14 10° SE visible
06 Feb 3.1 18:49:44 10° SW 18:51:16 14° SSW 18:52:48 10° SSE visible
